Location: Acton
(51.4942°N, 0.2232°W)
Time: 01:23:46
(UTC+00:00)

SPOT 5 - Pass Details

Date: 18 September 2020
Orbit: 623 x 815 km, 98.3° (Epoch: 30 October)

Event Time Altitude Azimuth Distance (km) Brightness Sun altitude
Exits shadow 20:40:13 36° 65° (ENE) 1,247 3.8 -23.1°
Maximum altitude 20:40:19 36° 63° (ENE) 1,247 3.8 -23.1°
Drops below altitude 10° 20:45:07 10° 359° (N) 2,400 6.0 -23.7°
Sets 20:47:39 0° 351° (N) 3,347 7.0 -24.0°
